EW5286 Weather Reports


Display with metric or nautical units.
time (UTC)temp
F
wind
direction
speed
MPH
gust
MPH
rain 1hr
in
rain 24hr
in
rain mn
in
humidity
%
barometer
mb
20260505051533 66 236 5.0 11.0 0.00 0.00 0.00 66 1006.7
20260505051439 67 237 6.0 11.0 0.00 0.00 0.00 66 1007.5
20260505050922 66 240 6.0 15.0 0.00 0.00 0.00 67 1007.5
20260505050433 66 225 7.0 15.0 0.00 0.00 0.00 66 1007.8
20260505041541 67 231 4.0 13.0 0.00 0.00 0.00 66 1007.3
20260505041421 67 240 5.0 13.0 0.00 0.00 0.00 66 1008.2
20260505040933 67 246 6.0 13.0 0.00 0.00 0.00 66 1008.1
20260505040425 67 248 5.0 14.0 0.00 0.00 0.00 66 1008.1
20260505040050 67 231 5.0 14.0 0.00 0.00 0.00 65 1007.3
20260505035925 67 198 6.0 9.0 0.00 0.00 0.00 65 1008.1
20260505035437 68 217 5.0 9.0 0.00 0.00 0.00 65 1008.1
20260505034929 67 226 6.0 9.0 0.00 0.00 0.00 66 1008.1
20260505034555 67 240 5.0 10.0 0.00 0.00 0.00 66 1007.3
20260505034429 67 225 6.0 11.0 0.00 0.00 0.00 66 1008.2
20260505033940 68 231 6.0 11.0 0.00 0.00 0.00 65 1008.2
20260505033432 68 257 5.0 9.0 0.00 0.00 0.00 65 1008.3
20260505033047 67 236 4.0 12.0 0.00 0.00 0.00 65 1007.5
20260505032928 68 230 5.0 12.0 0.00 0.00 0.00 65 1008.3
20260505032445 68 213 5.0 12.0 0.00 0.00 0.00 65 1008.3
20260505031928 68 251 4.0 9.0 0.00 0.00 0.00 64 1008.3
20260505031541 68 259 4.0 9.0 0.00 0.00 0.00 64 1007.5
20260505031439 68 208 4.0 9.0 0.00 0.00 0.00 64 1008.3
20260505030950 68 236 5.0 7.0 0.00 0.00 0.00 64 1008.3
20260505030431 68 237 4.0 10.0 0.00 0.00 0.00 65 1008.2
20260505030036 68 234 4.0 10.0 0.00 0.00 0.00 64 1007.3
20260505025941 69 233 5.0 10.0 0.00 0.00 0.00 64 1008.1
20260505025423 69 235 5.0 9.0 0.00 0.00 0.00 64 1007.9
20260505024935 69 258 5.0 9.0 0.00 0.00 0.00 64 1007.9
20260505024544 69 236 4.0 8.0 0.00 0.00 0.00 64 1007.1
20260505024445 69 244 5.0 10.0 0.00 0.00 0.00 64 1007.8
20260505023927 69 254 5.0 10.0 0.00 0.00 0.00 64 1007.9
20260505023439 69 212 5.0 10.0 0.00 0.00 0.00 64 1007.7
20260505023106 69 240 4.0 9.0 0.00 0.00 0.00 63 1006.9
20260505022948 69 229 5.0 9.0 0.00 0.00 0.00 63 1007.6
20260505022431 69 240 5.0 10.0 0.00 0.00 0.00 63 1007.6
20260505021922 69 223 5.0 11.0 0.00 0.00 0.00 63 1007.5
20260505021539 69 240 5.0 11.0 0.00 0.00 0.00 63 1006.6
20260505021423 70 181 5.0 11.0 0.00 0.00 0.00 63 1007.4
20260505020935 69 229 6.0 10.0 0.00 0.00 0.00 63 1007.5
20260505020502 69 243 6.0 10.0 0.00 0.00 0.00 63 1007.5
20260505020031 69 209 4.0 8.0 0.00 0.00 0.00 63 1006.5
20260505015931 70 250 5.0 8.0 0.00 0.00 0.00 63 1007.4
20260505015502 70 240 5.0 10.0 0.00 0.00 0.00 62 1007.4
20260505014924 70 239 5.0 10.0 0.00 0.00 0.00 62 1007.4
20260505014512 69 248 4.0 8.0 0.00 0.00 0.00 62 1006.5
20260505014453 70 248 5.0 12.0 0.00 0.00 0.00 62 1007.5
20260505013943 70 233 5.0 12.0 0.00 0.00 0.00 62 1007.4
20260505013433 70 234 4.0 10.0 0.00 0.00 0.00 62 1007.4
20260505013045 70 188 4.0 11.0 0.00 0.00 0.00 62 1006.4
20260505012943 70 124 5.0 11.0 0.00 0.00 0.00 62 1007.3
20260505012425 70 243 5.0 11.0 0.00 0.00 0.00 61 1007.2
20260505011938 70 236 4.0 7.0 0.00 0.00 0.00 61 1007.2
20260505011551 70 217 3.0 9.0 0.00 0.00 0.00 61 1006.4
20260505011448 71 229 5.0 9.0 0.00 0.00 0.00 61 1007.3
20260505010930 71 231 5.0 9.0 0.00 0.00 0.00 61 1007.2
20260505010441 71 252 5.0 11.0 0.00 0.00 0.00 60 1007.1
20260505010037 70 244 4.0 11.0 0.00 0.00 0.00 61 1006.3
20260505005922 71 240 5.0 11.0 0.00 0.00 0.00 61 1007.2
20260505005458 71 240 5.0 9.0 0.00 0.00 0.00 60 1007.1
20260505005009 71 244 4.0 7.0 0.00 0.00 0.00 61 1007.1
20260505004502 71 232 4.0 9.0 0.00 0.00 0.00 60 1006.3
20260505004428 71 252 5.0 9.0 0.00 0.00 0.00 60 1007.2
20260505003940 72 213 4.0 12.0 0.00 0.00 0.00 60 1007.1
20260505003451 72 226 5.0 12.0 0.00 0.00 0.00 59 1007.1
20260505003009 71 211 4.0 8.0 0.00 0.00 0.00 59 1006.3
20260505002931 72 205 4.0 8.0 0.00 0.00 0.00 59 1007.2
20260505002420 72 235 4.0 10.0 0.00 0.00 0.00 59 1007.2
20260505001933 72 238 5.0 10.0 0.00 0.00 0.00 59 1007.2
20260505001601 72 236 4.0 9.0 0.00 0.00 0.00 59 1006.3
20260505001433 72 232 5.0 9.0 0.00 0.00 0.00 59 1007.3
20260505000925 72 259 5.0 13.0 0.00 0.00 0.00 58 1007.4
20260505000428 73 238 5.0 11.0 0.00 0.00 0.00 58 1007.3
20260505000007 72 235 4.0 11.0 0.00 0.00 0.00 57 1006.5
20260504235938 73 236 5.0 11.0 0.00 0.00 0.00 57 1007.3
20260504235429 73 244 6.0 10.0 0.00 0.00 0.00 56 1007.3
20260504234939 73 248 6.0 13.0 0.00 0.00 0.00 56 1007.3
20260504234554 73 244 6.0 13.0 0.00 0.00 0.00 57 1006.4
20260504234436 73 264 7.0 13.0 0.00 0.00 0.00 56 1007.3
20260504233926 73 237 5.0 10.0 0.00 0.00 0.00 57 1007.3
20260504233438 73 245 7.0 10.0 0.00 0.00 0.00 56 1007.4
20260504233111 73 236 5.0 8.0 0.00 0.00 0.00 56 1006.5
20260504233008 74 205 5.0 9.0 0.00 0.00 0.00 57 1007.4
20260504232430 74 228 5.0 12.0 0.00 0.00 0.00 56 1007.5
20260504231941 74 195 6.0 12.0 0.00 0.00 0.00 55 1007.6
20260504231548 73 253 4.0 12.0 0.00 0.00 0.00 56 1006.8
20260504231422 74 236 5.0 12.0 0.00 0.00 0.00 55 1007.7
20260504230933 74 252 7.0 12.0 0.00 0.00 0.00 55 1007.7
20260504230425 74 249 7.0 12.0 0.00 0.00 0.00 54 1007.8
20260504230040 74 232 6.0 12.0 0.00 0.00 0.00 56 1007.0
20260504225955 74 242 6.0 12.0 0.00 0.00 0.00 55 1007.9
20260504225446 74 248 6.0 10.0 0.00 0.00 0.00 55 1008.0
20260504224949 74 241 6.0 12.0 0.00 0.00 0.00 55 1008.1
20260504224501 74 238 7.0 12.0 0.00 0.00 0.00 54 1007.3
20260504224438 75 237 7.0 12.0 0.00 0.00 0.00 54 1008.2
20260504223929 75 236 7.0 13.0 0.00 0.00 0.00 54 1008.1
20260504223432 75 251 6.0 13.0 0.00 0.00 0.00 54 1008.1
20260504223011 74 236 5.0 13.0 0.00 0.00 0.00 54 1007.3
20260504222922 75 251 6.0 13.0 0.00 0.00 0.00 54 1008.2
20260504222450 75 227 6.0 15.0 0.00 0.00 0.00 54 1008.1
20260504221941 75 255 7.0 15.0 0.00 0.00 0.00 53 1008.2
20260504221612 75 241 8.0 12.0 0.00 0.00 0.00 53 1007.3
20260504221422 76 246 7.0 12.0 0.00 0.00 0.00 52 1008.3
20260504220934 76 198 6.0 12.0 0.00 0.00 0.00 53 1008.3
20260504220444 76 242 7.0 12.0 0.00 0.00 0.00 52 1008.3
20260504220011 75 248 6.0 13.0 0.00 0.00 0.00 53 1007.4
20260504215925 76 214 6.0 13.0 0.00 0.00 0.00 53 1008.3
20260504215436 76 154 9.0 14.0 0.00 0.00 0.00 51 1008.5
20260504214938 76 231 7.0 14.0 0.00 0.00 0.00 52 1008.5
20260504214512 75 171 8.0 14.0 0.00 0.00 0.00 52 1007.7
20260504214447 76 241 8.0 14.0 0.00 0.00 0.00 51 1008.5
20260504213937 76 225 8.0 13.0 0.00 0.00 0.00 50 1008.6
20260504213428 76 241 8.0 13.0 0.00 0.00 0.00 51 1008.5
20260504213044 76 239 6.0 15.0 0.00 0.00 0.00 52 1007.7
20260504212937 76 251 7.0 15.0 0.00 0.00 0.00 51 1008.6
20260504212447 77 250 8.0 15.0 0.00 0.00 0.00 50 1008.7
20260504211929 77 236 7.0 13.0 0.00 0.00 0.00 51 1008.7
20260504211526 76 260 6.0 14.0 0.00 0.00 0.00 51 1008.0
20260504211435 77 248 7.0 14.0 0.00 0.00 0.00 51 1008.8
20260504210947 77 238 6.0 14.0 0.00 0.00 0.00 50 1008.9
20260504210429 76 206 9.0 17.0 0.00 0.00 0.00 49 1009.0
20260504210034 76 255 9.0 17.0 0.00 0.00 0.00 49 1008.2
20260504205940 76 231 10.0 17.0 0.00 0.00 0.00 49 1009.0
20260504205423 77 249 8.0 17.0 0.00 0.00 0.00 50 1009.1
20260504204934 77 219 8.0 17.0 0.00 0.00 0.00 50 1009.0
20260504204521 76 251 6.0 15.0 0.00 0.00 0.00 50 1008.4
20260504204423 76 250 6.0 13.0 0.00 0.00 0.00 50 1009.3
20260504203925 77 213 8.0 13.0 0.00 0.00 0.00 49 1009.3
20260504203436 77 227 7.0 13.0 0.00 0.00 0.00 50 1009.4
20260504203029 76 243 7.0 18.0 0.00 0.00 0.00 51 1008.5
20260504202925 77 208 7.0 18.0 0.00 0.00 0.00 50 1009.4
20260504202427 77 218 9.0 18.0 0.00 0.00 0.00 49 1009.4
20260504201939 77 239 6.0 13.0 0.00 0.00 0.00 51 1009.5
20260504201535 76 223 6.0 15.0 0.00 0.00 0.00 50 1008.7
20260504201430 76 227 7.0 15.0 0.00 0.00 0.00 50 1009.6
20260504200940 76 250 8.0 15.0 0.00 0.00 0.00 51 1009.8
20260504200511 76 237 9.0 15.0 0.00 0.00 0.00 51 1009.8
20260504200104 76 237 7.0 14.0 0.00 0.00 0.00 50 1009.0
20260504195931 77 247 7.0 13.0 0.00 0.00 0.00 51 1009.9
20260504195422 77 156 6.0 15.0 0.00 0.00 0.00 49 1010.0
20260504194951 77 247 9.0 16.0 0.00 0.00 0.00 50 1010.0
20260504194506 76 245 9.0 16.0 0.00 0.00 0.00 50 1009.1
20260504194429 77 245 9.0 16.0 0.00 0.00 0.00 50 1010.0
20260504193949 77 233 8.0 16.0 0.00 0.00 0.00 48 1010.1
20260504193431 77 243 7.0 13.0 0.00 0.00 0.00 49 1010.3
20260504193035 77 248 6.0 13.0 0.00 0.00 0.00 49 1009.5
20260504192940 77 236 6.0 13.0 0.00 0.00 0.00 50 1010.4
20260504192422 77 233 6.0 15.0 0.00 0.00 0.00 51 1010.5
20260504191935 76 243 8.0 17.0 0.00 0.00 0.00 51 1010.5
20260504191542 76 230 8.0 17.0 0.00 0.00 0.00 49 1009.7
20260504191444 77 236 9.0 17.0 0.00 0.00 0.00 49 1010.7
20260504190947 77 234 7.0 15.0 0.00 0.00 0.00 51 1010.6
20260504190437 76 245 8.0 16.0 0.00 0.00 0.00 50 1010.6
20260504190028 75 251 8.0 16.0 0.00 0.00 0.00 51 1009.8
20260504185927 76 273 9.0 16.0 0.00 0.00 0.00 50 1010.6
20260504185458 76 226 6.0 16.0 0.00 0.00 0.00 53 1010.8
20260504184929 75 253 10.0 16.0 0.00 0.00 0.00 50 1010.8
20260504184556 75 229 8.0 15.0 0.00 0.00 0.00 52 1010.0
20260504184424 75 239 10.0 15.0 0.00 0.00 0.00 51 1011.0
20260504183935 76 246 8.0 14.0 0.00 0.00 0.00 53 1011.0
20260504183446 75 245 8.0 13.0 0.00 0.00 0.00 52 1011.1
20260504183041 75 234 9.0 16.0 0.00 0.00 0.00 53 1010.2
20260504182936 76 203 8.0 16.0 0.00 0.00 0.00 51 1011.0
20260504182438 75 226 10.0 16.0 0.00 0.00 0.00 51 1010.8
20260504181927 76 231 8.0 12.0 0.00 0.00 0.00 51 1011.1
20260504181529 75 243 6.0 12.0 0.00 0.00 0.00 52 1010.4
20260504181436 75 229 6.0 12.0 0.00 0.00 0.00 52 1011.1
20260504180947 75 281 6.0 12.0 0.00 0.00 0.00 52 1011.1
20260504180449 76 224 7.0 12.0 0.00 0.00 0.00 51 1011.3
20260504180012 75 252 5.0 12.0 0.00 0.00 0.00 55 1010.6
20260504175938 76 245 5.0 12.0 0.00 0.00 0.00 53 1011.3
20260504175421 75 243 7.0 13.0 0.00 0.00 0.00 53 1011.3
20260504174931 75 233 6.0 12.0 0.00 0.00 0.00 52 1011.4
20260504174518 74 240 6.0 14.0 0.00 0.00 0.00 52 1010.7
20260504174421 75 258 6.0 14.0 0.00 0.00 0.00 53 1011.5
20260504173923 75 245 8.0 16.0 0.00 0.00 0.00 52 1011.5
20260504173435 75 249 7.0 11.0 0.00 0.00 0.00 52 1011.7
20260504173025 74 247 6.0 12.0 0.00 0.00 0.00 52 1011.0
20260504172925 74 230 7.0 12.0 0.00 0.00 0.00 52 1011.8
20260504172423 74 253 7.0 17.0 0.00 0.00 0.00 52 1011.8
20260504171935 74 243 9.0 17.0 0.00 0.00 0.00 52 1011.9
20260504171534 73 249 8.0 15.0 0.00 0.00 0.00 53 1011.1
20260504171445 74 252 8.0 15.0 0.00 0.00 0.00 53 1012.0
20260504170932 74 247 10.0 15.0 0.00 0.00 0.00 53 1011.9
20260504170435 74 250 8.0 16.0 0.00 0.00 0.00 52 1012.0
20260504160428 72 223 7.0 15.0 0.00 0.00 0.00 54 1012.8
20260504150957 69 249 8.0 10.0 0.00 0.00 0.00 64 1012.8
20260504150442 68 255 5.0 8.0 0.00 0.00 0.00 67 1012.8
20260504140928 63 264 2.0 8.0 0.00 0.00 0.00 76 1013.3
20260504140440 62 250 4.0 8.0 0.00 0.00 0.00 76 1013.3
20260504130432 57 239 2.0 3.0 0.00 0.00 0.00 85 1013.2
20260504110507 57 251 3.0 4.0 0.00 0.00 0.00 81 1012.2
20260504100431 59 236 3.0 5.0 0.00 0.00 0.00 77 1012.8
20260504082008 61 245 4.0 6.0 0.00 0.00 0.00 75 1012.9
20260504081501 60 244 3.0 5.0 0.00 0.00 0.00 74 1012.2
20260504081428 61 239 3.0 5.0 0.00 0.00 0.00 74 1012.9
20260504080938 61 248 3.0 5.0 0.00 0.00 0.00 74 1012.9
20260504080450 61 252 3.0 5.0 0.00 0.00 0.00 74 1013.0
20260504070109 61 238 3.0 4.0 0.00 0.00 0.00 74 1012.8